IZ1UQG-2 Weather Reports


time (UTC)temp
C
wind
direction
speed
KPH
gust
KPH
rain 1hr
cm
rain 24hr
cm
rain mn
cm
humidity
%
barometer
mb
20260507065708 11 359 6.4 14.5 0.00 3.86 0.00 82 1012.2
20260507065604 11 359 6.4 14.5 0.00 3.86 0.00 82 1012.2
20260507065504 11 357 6.4 14.5 0.00 3.86 0.00 82 1012.2
20260507065415 11 357 6.4 14.5 0.00 3.86 0.00 82 1012.1
20260507065306 11 356 6.4 14.5 0.00 3.86 0.00 82 1012.1
20260507065204 11 354 6.4 14.5 0.00 3.86 0.00 82 1012.2
20260507065103 11 354 6.4 14.5 0.00 3.86 0.00 82 1012.2
20260507065004 11 353 6.4 14.5 0.00 3.86 0.00 82 1012.1
20260507064904 11 350 8.0 14.5 0.00 3.86 0.00 82 1012.1
20260507064804 11 349 6.4 14.5 0.00 3.86 0.00 82 1012.1
20260507064604 11 349 8.0 14.5 0.00 3.86 0.00 83 1012.2
20260507064504 11 353 8.0 14.5 0.00 3.86 0.00 83 1012.2
20260507064408 11 355 8.0 14.5 0.00 3.86 0.00 83 1012.1
20260507064303 11 356 8.0 14.5 0.00 3.86 0.00 83 1012.1
20260507064204 11 357 8.0 14.5 0.00 3.86 0.00 83 1012.1
20260507064115 11 358 8.0 14.5 0.00 3.86 0.00 83 1012.2
20260507064004 11 1 6.4 14.5 0.00 3.86 0.00 83 1012.3
20260507063903 11 3 6.4 14.5 0.00 3.86 0.00 83 1012.2
20260507063804 11 4 6.4 14.5 0.00 3.86 0.00 83 1012.2
20260507063704 11 5 6.4 14.5 0.00 3.86 0.00 83 1012.2
20260507063603 11 9 4.8 12.9 0.00 3.86 0.00 82 1012.3
20260507063504 11 8 4.8 12.9 0.00 3.86 0.00 84 1012.2
20260507063405 11 8 4.8 8.0 0.00 3.86 0.00 84 1012.2
20260507063303 11 9 4.8 8.0 0.00 3.86 0.00 84 1012.2
20260507063203 11 10 4.8 8.0 0.00 3.86 0.00 84 1012.2
20260507063104 11 7 4.8 8.0 0.00 3.86 0.00 84 1012.1
20260507063004 11 6 4.8 8.0 0.00 3.86 0.00 84 1012.1
20260507062903 11 7 4.8 8.0 0.00 2.97 0.00 85 1012.1
20260507062810 11 2 4.8 9.7 0.00 2.97 0.00 85 1012.1
20260507062703 11 3 4.8 9.7 0.00 2.97 0.00 85 1012.1
20260507062603 11 4 4.8 9.7 0.00 2.97 0.00 85 1012.1
20260507062515 11 8 4.8 9.7 0.00 2.97 0.00 85 1012.1
20260507062404 11 8 4.8 9.7 0.00 3.05 0.00 85 1012.1
20260507062306 11 6 4.8 9.7 0.00 3.05 0.00 86 1012.1
20260507062203 11 5 4.8 9.7 0.00 3.05 0.00 86 1012.1
20260507062103 11 8 4.8 9.7 0.00 3.05 0.00 87 1012.1
20260507062004 10 10 4.8 9.7 0.00 3.05 0.00 87 1012.0
20260507061903 10 10 6.4 9.7 0.00 3.05 0.00 87 1012.1
20260507061804 10 11 6.4 9.7 0.00 3.05 0.00 86 1012.0
20260507061703 10 8 6.4 9.7 0.00 3.05 0.00 86 1012.1
20260507061603 10 5 4.8 9.7 0.00 3.05 0.00 86 1012.0
20260507061508 10 1 4.8 9.7 0.00 3.05 0.00 87 1012.0
20260507061404 10 358 4.8 9.7 0.00 3.15 0.00 86 1012.0
20260507061304 10 355 4.8 9.7 0.00 3.15 0.00 86 1012.0
20260507061215 10 353 4.8 9.7 0.00 3.15 0.00 86 1012.1
20260507061104 10 352 4.8 9.7 0.00 3.15 0.00 87 1012.0
20260507061004 10 349 4.8 9.7 0.00 3.15 0.00 87 1012.0
20260507060904 10 348 4.8 9.7 0.00 3.25 0.00 87 1011.9
20260507060704 10 350 4.8 9.7 0.00 3.25 0.00 87 1012.0
20260507060603 10 351 4.8 9.7 0.00 3.25 0.00 87 1012.0
20260507060504 10 353 4.8 9.7 0.00 3.25 0.00 87 1012.0
20260507060404 10 355 4.8 9.7 0.00 3.25 0.00 87 1012.0
20260507060303 10 357 4.8 9.7 0.00 3.25 0.00 87 1012.0
20260507060203 10 359 4.8 9.7 0.00 3.25 0.00 87 1012.0
20260507060103 10 359 3.2 8.0 0.00 3.25 0.00 87 1012.0
20260507060004 10 2 3.2 8.0 0.00 3.25 0.00 87 1012.0
20260507055904 10 4 3.2 8.0 0.00 3.35 0.00 88 1012.0
20260507055803 10 5 3.2 8.0 0.00 3.35 0.00 88 1012.0
20260507055704 10 6 1.6 6.4 0.00 3.35 0.00 87 1012.0
20260507055608 10 3 1.6 6.4 0.00 3.35 0.00 87 1012.0
20260507055504 10 1 1.6 6.4 0.00 3.35 0.00 88 1012.0
20260507055403 10 5 1.6 6.4 0.00 3.45 0.00 89 1012.0
20260507055314 10 7 1.6 6.4 0.00 3.45 0.00 89 1012.0
20260507055205 10 8 1.6 6.4 0.00 3.45 0.00 89 1011.9
20260507055103 10 8 1.6 6.4 0.00 3.45 0.00 89 1012.0
20260507055004 10 7 3.2 6.4 0.00 3.45 0.00 89 1012.0
20260507054903 10 5 3.2 6.4 0.00 3.56 0.00 89 1012.0
20260507054805 10 5 1.6 6.4 0.00 3.56 0.00 88 1012.0
20260507054704 10 7 1.6 6.4 0.00 3.56 0.00 89 1012.0
20260507054604 10 13 1.6 6.4 0.00 3.56 0.00 89 1012.1
20260507054504 10 11 1.6 9.7 0.00 3.56 0.00 88 1012.1
20260507054404 10 4 3.2 9.7 0.00 3.56 0.00 88 1012.0
20260507054104 10 1 3.2 9.7 0.00 3.56 0.00 89 1011.8
20260507053904 10 358 1.6 9.7 0.00 3.56 0.00 89 1011.9
20260507053705 10 357 3.2 9.7 0.00 3.56 0.00 89 1011.9
20260507053604 10 356 3.2 9.7 0.00 3.56 0.00 89 1011.9
20260507053504 10 356 3.2 8.0 0.00 3.56 0.00 89 1011.9
20260507053404 10 355 1.6 6.4 0.00 3.56 0.00 90 1012.0
20260507053304 10 353 1.6 6.4 0.00 3.56 0.00 90 1011.9
20260507053204 10 355 3.2 6.4 0.00 3.56 0.00 90 1011.8
20260507053104 10 353 3.2 6.4 0.00 3.56 0.00 90 1011.9
20260507053005 10 353 3.2 6.4 0.00 3.56 0.00 90 1011.9
20260507052604 10 345 3.2 6.4 0.00 3.56 0.00 90 1012.0
20260507052504 10 343 1.6 6.4 0.00 3.56 0.00 90 1011.9
20260507052415 10 342 1.6 6.4 0.00 3.56 0.00 90 1012.0
20260507052306 10 341 1.6 6.4 0.00 3.56 0.00 90 1012.0
20260507052203 10 329 1.6 6.4 0.00 3.56 0.00 90 1012.0
20260507052104 10 321 1.6 4.8 0.00 3.56 0.00 90 1012.0
20260507052004 10 322 1.6 4.8 0.00 3.56 0.00 90 1012.0
20260507051904 10 323 1.6 4.8 0.00 3.66 0.00 90 1012.1
20260507051804 10 324 1.6 4.8 0.00 3.66 0.00 90 1012.0
20260507051704 10 325 1.6 4.8 0.00 3.66 0.00 90 1012.0
20260507051604 10 325 1.6 4.8 0.00 3.66 0.00 91 1012.0
20260507051504 10 327 1.6 4.8 0.00 3.66 0.00 91 1012.0
20260507051408 10 330 1.6 4.8 0.00 3.66 0.00 91 1011.9
20260507051304 10 333 1.6 4.8 0.00 3.66 0.00 91 1011.9
20260507051004 10 2 1.6 4.8 0.00 3.66 0.00 90 1011.8
20260507050904 10 15 1.6 3.2 0.00 3.76 0.00 91 1011.8
20260507050803 10 29 1.6 4.8 0.00 3.76 0.00 91 1011.8
20260507050604 10 29 1.6 4.8 0.00 3.76 0.00 91 1011.8
20260507050504 10 28 1.6 4.8 0.00 3.76 0.00 91 1011.9
20260507050403 10 25 1.6 4.8 0.00 3.76 0.00 91 1011.8
20260507050204 10 26 1.6 4.8 0.00 3.76 0.00 91 1011.8
20260507050104 10 24 0.0 4.8 0.00 3.76 0.00 91 1011.8
20260507050005 10 11 0.0 4.8 0.00 3.76 0.00 91 1011.7
20260507045903 10 8 0.0 4.8 0.00 3.76 0.00 91 1011.8
20260507045803 10 328 0.0 3.2 0.00 3.76 0.00 91 1011.8
20260507045704 10 312 0.0 1.6 0.00 3.76 0.00 91 1011.8
20260507045604 10 329 0.0 3.2 0.00 3.76 0.00 92 1011.8
20260507045508 10 335 0.0 3.2 0.00 3.76 0.00 92 1011.7
20260507045306 10 343 0.0 3.2 0.00 3.76 0.00 92 1011.7
20260507045214 10 344 0.0 3.2 0.00 3.76 0.00 92 1011.8
20260507045104 10 347 0.0 3.2 0.00 3.76 0.00 92 1011.8
20260507044904 9 353 1.6 3.2 0.00 3.76 0.00 92 1011.7
20260507044804 9 357 0.0 3.2 0.00 3.76 0.00 92 1011.7
20260507044704 9 357 1.6 3.2 0.00 3.76 0.00 92 1011.6
20260507044604 9 357 1.6 3.2 0.00 3.76 0.00 92 1011.7
20260507044504 9 6 1.6 4.8 0.00 3.76 0.00 92 1011.6
20260507044403 9 10 1.6 4.8 0.00 3.86 0.00 92 1011.6
20260507044303 9 10 1.6 4.8 0.00 3.86 0.00 92 1011.7
20260507044103 9 9 1.6 4.8 0.00 3.86 0.00 92 1011.5
20260507044004 9 15 1.6 4.8 0.00 3.86 0.00 92 1011.5
20260507043913 9 15 1.6 4.8 0.00 3.86 0.00 92 1011.4
20260507043803 9 16 3.2 4.8 0.00 3.86 0.00 92 1011.5
20260507043704 9 17 3.2 4.8 0.00 3.86 0.00 92 1011.5
20260507043603 9 19 1.6 4.8 0.00 3.86 0.00 92 1011.4
20260507043504 9 17 1.6 4.8 0.00 3.86 0.00 92 1011.5
20260507043403 9 15 1.6 4.8 0.00 3.86 0.00 92 1011.4
20260507043304 9 16 1.6 4.8 0.00 3.86 0.00 92 1011.3
20260507043204 9 18 1.6 4.8 0.00 3.86 0.00 92 1011.3
20260507043004 9 11 1.6 4.8 0.00 3.86 0.00 92 1011.2
20260507042903 9 11 1.6 4.8 0.00 3.86 0.00 92 1011.2
20260507042804 9 9 0.0 3.2 0.00 3.86 0.00 92 1011.1
20260507042608 9 2 0.0 3.2 0.00 3.86 0.00 92 1011.2
20260507042504 9 355 0.0 3.2 0.00 3.86 0.00 92 1011.1
20260507042404 9 353 0.0 1.6 0.00 3.86 0.00 92 1011.0
20260507042315 9 353 0.0 1.6 0.00 3.86 0.00 92 1011.1
20260507042204 9 353 0.0 1.6 0.00 3.86 0.00 92 1011.1
20260507042104 9 353 0.0 1.6 0.00 3.86 0.00 92 1011.1
20260507041904 9 350 0.0 3.2 0.00 3.86 0.00 92 1011.1
20260507041803 9 351 0.0 3.2 0.00 3.86 0.00 92 1011.0
20260507041704 9 7 1.6 3.2 0.00 3.86 0.00 92 1011.0
20260507041604 9 21 1.6 3.2 0.00 3.86 0.00 92 1010.9
20260507041504 9 22 1.6 3.2 0.00 3.86 0.00 92 1011.0
20260507041404 9 21 1.6 3.2 0.00 3.86 0.00 92 1011.0
20260507041309 9 21 1.6 3.2 0.00 3.86 0.00 92 1011.0
20260507041104 9 25 1.6 3.2 0.00 3.86 0.00 92 1011.0
20260507041015 9 27 1.6 3.2 0.00 3.86 0.00 92 1010.9
20260507040903 9 36 1.6 3.2 0.00 3.86 0.00 92 1010.9
20260507040703 9 15 0.0 3.2 0.00 3.86 0.00 92 1010.9
20260507040603 9 357 0.0 3.2 0.00 3.86 0.00 92 1010.9
20260507040505 9 350 0.0 3.2 0.00 3.86 0.00 92 1010.9
20260507040404 9 350 0.0 3.2 0.00 3.86 0.00 92 1010.9
20260507040304 9 350 0.0 3.2 0.00 3.86 0.00 92 1010.9
20260507040204 9 346 0.0 3.2 0.00 3.86 0.00 92 1010.8
20260507040104 9 335 1.6 4.8 0.00 3.86 0.00 92 1010.9
20260507040007 9 329 1.6 4.8 0.00 3.86 0.00 92 1010.9
20260507035904 9 324 1.6 4.8 0.00 3.86 0.00 92 1010.9
20260507035803 9 320 1.6 4.8 0.00 3.86 0.00 92 1010.8
20260507035714 9 317 1.6 4.8 0.00 3.86 0.00 92 1010.9
20260507035604 9 314 1.6 4.8 0.00 3.86 0.00 92 1010.9
20260507035504 9 314 1.6 4.8 0.00 3.86 0.00 92 1011.0
20260507035403 9 314 1.6 4.8 0.00 3.86 0.00 92 1010.9
20260507035306 9 313 1.6 4.8 0.00 3.86 0.00 92 1010.9
20260507035204 9 310 1.6 4.8 0.00 3.86 0.00 92 1011.0
20260507035104 9 309 1.6 4.8 0.00 3.86 0.00 92 1010.9
20260507034804 9 310 1.6 4.8 0.00 3.86 0.00 92 1010.9
20260507034703 9 309 1.6 4.8 0.00 3.86 0.00 92 1010.9
20260507034603 9 308 1.6 4.8 0.00 3.86 0.00 92 1010.8
20260507034505 9 306 1.6 4.8 0.00 3.86 0.00 92 1010.7
20260507034304 9 307 1.6 4.8 0.00 3.86 0.00 92 1010.9
20260507033903 9 302 3.2 6.4 0.00 3.86 0.00 92 1010.9
20260507033803 9 298 3.2 6.4 0.00 3.86 0.00 92 1010.9
20260507033603 9 291 3.2 6.4 0.00 3.86 0.00 92 1010.9
20260507033504 9 289 3.2 6.4 0.00 3.86 0.00 92 1010.9
20260507033404 9 288 3.2 6.4 0.00 3.86 0.00 92 1010.9
20260507033304 9 286 3.2 6.4 0.00 3.86 0.00 92 1010.9
20260507033204 9 281 3.2 6.4 0.00 3.86 0.00 92 1010.9
20260507033103 9 281 3.2 6.4 0.00 3.86 0.00 92 1010.9
20260507033004 9 283 3.2 6.4 0.00 3.86 0.00 92 1011.0
20260507032903 9 286 3.2 6.4 0.00 3.86 0.00 92 1010.9
20260507032804 9 291 1.6 6.4 0.00 3.86 0.00 92 1010.8
20260507032703 9 293 1.6 6.4 0.00 3.86 0.00 92 1010.9
20260507032603 9 300 1.6 6.4 0.00 3.86 0.00 92 1010.8
20260507032511 9 311 1.6 4.8 0.00 3.86 0.00 92 1010.8
20260507032305 9 326 0.0 3.2 0.00 3.86 0.00 92 1010.8
20260507032215 9 326 0.0 3.2 0.00 3.86 0.00 92 1010.8
20260507032004 9 326 1.6 4.8 0.00 3.86 0.00 92 1010.9
20260507031904 9 326 1.6 4.8 0.00 3.86 0.00 92 1010.8
20260507031804 9 326 1.6 4.8 0.00 3.86 0.00 92 1010.8
20260507031704 9 326 1.6 4.8 0.00 3.86 0.00 92 1010.8
20260507031603 10 328 1.6 4.8 0.00 3.86 0.00 92 1010.8
20260507031504 10 330 1.6 4.8 0.00 3.86 0.00 92 1010.7
20260507031404 10 332 1.6 4.8 0.00 3.86 0.00 92 1010.8
20260507031304 10 332 1.6 4.8 0.00 3.86 0.00 92 1010.8
20260507031203 10 334 1.6 4.8 0.00 3.86 0.00 92 1010.8
20260507031103 10 337 1.6 4.8 0.00 3.86 0.00 92 1010.8
20260507031004 10 343 1.6 4.8 0.00 3.86 0.00 92 1010.8
20260507030908 10 347 1.6 4.8 0.00 3.86 0.00 92 1010.8
20260507030803 10 352 1.6 4.8 0.00 3.86 0.00 92 1010.8
20260507030704 10 353 1.6 4.8 0.00 3.86 0.00 92 1010.7
20260507030504 10 355 1.6 4.8 0.00 3.86 0.00 92 1010.7
20260507030403 10 354 1.6 4.8 0.00 3.86 0.00 92 1010.8
20260507030303 10 353 1.6 4.8 0.00 3.86 0.00 92 1010.8
20260507030204 10 352 1.6 4.8 0.00 3.86 0.00 92 1010.7
20260507030004 10 345 1.6 4.8 0.00 3.86 0.00 92 1010.8
20260507025903 10 341 1.6 4.8 0.00 3.86 0.00 92 1010.7
20260507025804 10 339 3.2 4.8 0.00 3.86 0.00 92 1010.8
20260507025705 10 338 3.2 4.8 0.00 3.86 0.00 92 1010.8
20260507025604 10 337 3.2 4.8 0.00 3.86 0.00 92 1010.8
20260507025505 10 334 3.2 4.8 0.00 3.86 0.00 92 1010.8
20260507025403 10 337 3.2 6.4 0.00 3.86 0.00 92 1010.8
20260507025204 10 342 4.8 9.7 0.00 3.86 0.00 92 1010.8
20260507025103 10 342 4.8 9.7 0.00 3.86 0.00 92 1010.8
20260507025015 10 342 4.8 9.7 0.00 3.86 0.00 92 1010.7
20260507024903 10 343 4.8 9.7 0.00 3.86 0.00 92 1010.7
20260507024704 10 342 6.4 9.7 0.00 3.86 0.00 92 1010.8
20260507024604 10 342 6.4 9.7 0.00 3.86 0.00 92 1010.7
20260507024503 10 342 6.4 9.7 0.00 3.86 0.00 92 1010.7
20260507024403 10 340 6.4 9.7 0.00 3.86 0.00 92 1010.7
20260507024304 10 338 6.4 9.7 0.00 3.86 0.00 92 1010.7
20260507024203 10 335 6.4 9.7 0.00 3.86 0.00 92 1010.7
20260507024104 10 333 4.8 9.7 0.00 3.86 0.00 92 1010.7
20260507024005 10 331 4.8 9.7 0.00 3.86 0.00 92 1010.7
20260507023904 10 329 4.8 9.7 0.00 3.86 0.00 92 1010.7
20260507023804 10 326 4.8 8.0 0.00 3.86 0.00 92 1010.8
20260507023703 10 323 3.2 8.0 0.00 3.86 0.00 92 1010.8
20260507023603 10 321 3.2 6.4 0.00 3.86 0.00 92 1010.8
20260507023504 10 317 3.2 6.4 0.00 3.86 0.00 92 1010.7
20260507023405 10 314 3.2 4.8 0.00 3.86 0.00 92 1010.8
20260507023305 10 314 1.6 4.8 0.00 3.86 0.00 92 1010.8
20260507023204 10 313 1.6 4.8 0.00 3.86 0.00 92 1010.8
20260507023004 10 316 1.6 4.8 0.00 3.86 0.00 92 1010.7
20260507022904 10 318 1.6 4.8 0.00 3.86 0.00 92 1010.7
20260507022815 10 318 1.6 6.4 0.00 3.86 0.00 92 1010.7
20260507022704 10 320 1.6 8.0 0.00 3.86 0.00 92 1010.7
20260507022604 10 321 3.2 8.0 0.00 3.86 0.00 92 1010.7
20260507022504 10 321 3.2 8.0 0.00 3.86 0.00 92 1010.7
20260507022404 10 322 3.2 8.0 0.00 3.86 0.00 92 1010.7
20260507022306 10 322 4.8 8.0 0.00 3.86 0.00 92 1010.6
20260507022203 10 322 4.8 8.0 0.00 3.86 0.00 92 1010.7
20260507022104 10 323 4.8 8.0 0.00 3.86 0.00 92 1010.8
20260507022005 10 324 4.8 8.0 0.00 3.86 0.00 92 1010.7
20260507021904 10 325 4.8 8.0 0.00 3.86 0.00 92 1010.7
20260507021803 10 327 4.8 8.0 0.00 3.86 0.00 92 1010.7
20260507021704 10 329 4.8 8.0 0.00 3.86 0.00 92 1010.6
20260507021604 10 332 4.8 8.0 0.00 3.86 0.00 92 1010.7
20260507021504 10 333 4.8 8.0 0.00 3.86 0.00 92 1010.7
20260507021404 10 335 4.8 8.0 0.00 3.86 0.00 92 1010.6
20260507021305 10 337 4.8 6.4 0.00 3.86 0.00 92 1010.6
20260507021203 10 339 4.8 6.4 0.00 3.86 0.00 92 1010.7
20260507021103 10 341 4.8 6.4 0.00 3.86 0.00 92 1010.6
20260507021004 10 343 4.8 6.4 0.00 3.86 0.00 92 1010.7
20260507020903 10 342 4.8 6.4 0.00 3.86 0.00 92 1010.7
20260507020804 10 345 4.8 8.0 0.00 3.86 0.00 92 1010.7
20260507020704 10 345 4.8 8.0 0.00 3.86 0.00 92 1010.7
20260507020504 10 346 4.8 8.0 0.00 3.86 0.00 92 1010.7
20260507020404 10 347 4.8 8.0 0.00 3.86 0.00 92 1010.7
20260507020308 10 347 4.8 8.0 0.00 3.86 0.00 92 1010.7
20260507020204 10 348 4.8 8.0 0.00 3.86 0.00 92 1010.6
20260507020104 10 348 4.8 8.0 0.00 3.86 0.00 92 1010.6
20260507020014 10 347 4.8 8.0 0.00 3.86 0.00 92 1010.6
20260507015903 10 346 4.8 8.0 0.00 3.86 0.00 92 1010.7
20260507015803 10 345 4.8 8.0 0.00 3.86 0.00 92 1010.7
20260507015704 10 343 4.8 8.0 0.00 3.86 0.00 92 1010.7
20260507015604 10 340 4.8 8.0 0.00 3.86 0.00 92 1010.7
20260507015504 10 337 4.8 8.0 0.00 3.86 0.00 92 1010.6
20260507015104 10 326 4.8 8.0 0.00 3.86 0.00 92 1010.7
20260507015007 10 326 4.8 8.0 0.00 3.86 0.00 92 1010.6
20260507014903 10 327 3.2 8.0 0.00 3.86 0.00 92 1010.7
20260507014803 10 323 3.2 8.0 0.00 3.86 0.00 92 1010.7
20260507014504 10 326 1.6 6.4 0.00 3.86 0.00 92 1010.6
20260507014404 10 334 1.6 6.4 0.00 3.86 0.00 92 1010.6
20260507014303 10 343 1.6 4.8 0.00 3.86 0.00 92 1010.5
20260507014203 10 352 1.6 6.4 0.00 3.86 0.00 92 1010.7
20260507014004 10 348 3.2 9.7 0.00 3.86 0.00 92 1010.6
20260507013803 10 346 3.2 9.7 0.00 3.86 0.00 92 1010.5
20260507013706 10 347 3.2 9.7 0.00 3.86 0.00 92 1010.5
20260507013604 10 346 4.8 9.7 0.00 3.86 0.00 92 1010.6
20260507013414 10 345 4.8 9.7 0.00 3.86 0.00 92 1010.5
20260507013304 10 343 4.8 9.7 0.00 3.86 0.00 92 1010.5
20260507013204 10 341 4.8 9.7 0.00 3.86 0.00 92 1010.5
20260507013104 10 339 6.4 9.7 0.00 3.86 0.00 92 1010.5
20260507012804 10 332 4.8 8.0 0.00 3.86 0.00 92 1010.4
20260507012704 10 329 4.8 8.0 0.00 3.86 0.00 92 1010.5
20260507012604 10 326 4.8 8.0 0.00 3.86 0.00 92 1010.5
20260507012407 10 321 3.2 8.0 0.00 3.86 0.00 92 1010.4
20260507012306 10 320 3.2 8.0 0.00 3.86 0.00 92 1010.4
20260507012204 10 319 3.2 8.0 0.00 3.86 0.00 92 1010.4
20260507012113 10 317 3.2 8.0 0.00 3.86 0.00 91 1010.4
20260507011903 10 319 3.2 6.4 0.00 3.86 0.00 92 1010.4
20260507011803 10 322 3.2 6.4 0.00 3.86 0.00 92 1010.4
20260507011704 10 326 3.2 6.4 0.00 3.86 0.00 92 1010.3
20260507011603 10 327 3.2 6.4 0.00 3.86 0.00 92 1010.4
20260507011403 10 333 3.2 6.4 0.00 3.86 0.00 92 1010.3
20260507011304 10 334 3.2 6.4 0.00 3.86 0.00 92 1010.4
20260507011203 10 334 4.8 8.0 0.00 3.86 0.00 92 1010.4
20260507011004 10 334 4.8 8.0 0.00 3.86 0.00 91 1010.4
20260507010807 10 332 4.8 8.0 0.00 3.86 0.00 91 1010.3
20260507010704 10 330 4.8 8.0 0.00 3.86 0.00 91 1010.4
20260507010603 10 329 4.8 8.0 0.00 3.86 0.00 91 1010.5
20260507010513 10 326 4.8 8.0 0.00 3.86 0.00 92 1010.3
20260507010404 10 324 4.8 8.0 0.00 3.86 0.00 92 1010.3
20260507010304 10 322 4.8 8.0 0.00 3.86 0.00 92 1010.4
20260507010005 10 315 4.8 8.0 0.00 3.86 0.00 92 1010.3
20260507005904 11 313 4.8 8.0 0.00 3.86 0.00 92 1010.3
20260507005803 11 311 4.8 8.0 0.00 3.86 0.00 92 1010.4
20260507005711 11 309 4.8 8.0 0.00 3.86 0.00 91 1010.3
20260507005603 11 308 3.2 8.0 0.00 3.86 0.00 91 1010.3
20260507005503 11 308 4.8 8.0 0.00 3.86 0.00 91 1010.4
20260507005404 11 307 4.8 8.0 0.00 3.86 0.00 91 1010.3
20260507005305 11 306 4.8 8.0 0.00 3.86 0.00 91 1010.3
20260507005103 11 307 3.2 6.4 0.00 3.86 0.00 91 1010.1
20260507005003 11 307 3.2 6.4 0.00 3.86 0.00 91 1010.1
20260507004915 11 307 3.2 6.4 0.00 3.86 0.00 91 1010.2
20260507004803 11 307 3.2 6.4 0.00 3.86 0.00 91 1010.1
20260507004704 11 307 3.2 6.4 0.00 3.86 0.00 91 1010.2
20260507004603 11 308 3.2 6.4 0.00 3.86 0.00 91 1010.1
20260507004504 11 307 3.2 6.4 0.00 3.86 0.00 91 1010.1
20260507004403 11 308 1.6 6.4 0.00 3.86 0.00 91 1010.0
20260507004304 11 310 1.6 6.4 0.00 3.86 0.00 91 1010.0
20260507004205 11 313 1.6 6.4 0.00 3.86 0.00 91 1010.1
20260507004104 11 311 1.6 6.4 0.00 3.86 0.00 91 1010.1
20260507004003 11 312 1.6 3.2 0.00 3.86 0.00 92 1010.1
20260507003912 11 313 1.6 3.2 0.00 3.86 0.00 91 1010.1
20260507003803 11 316 1.6 3.2 0.00 3.86 0.00 91 1010.1
20260507003603 11 322 1.6 4.8 0.00 3.86 0.00 92 1010.0
20260507003504 11 327 1.6 4.8 0.00 3.86 0.00 92 1010.0
20260507003304 11 336 3.2 6.4 0.00 3.86 0.00 91 1010.0
20260507003104 11 339 3.2 6.4 0.00 3.86 0.00 91 1010.1
20260507002912 11 340 3.2 6.4 0.00 3.86 0.00 91 1010.1
20260507002804 11 341 3.2 6.4 0.00 3.86 0.00 91 1010.1
20260507002703 11 342 3.2 6.4 0.00 3.86 0.00 91 1010.1
20260507002604 11 344 3.2 6.4 0.00 3.86 0.00 91 1010.0
20260507002504 11 344 3.2 6.4 0.00 3.86 0.00 91 1010.2
20260507002306 11 338 3.2 6.4 0.00 3.86 0.00 91 1010.1
20260507002204 11 335 3.2 6.4 0.00 3.86 0.00 91 1010.1
20260507002005 11 334 3.2 4.8 0.00 3.86 0.00 91 1010.1
20260507001804 11 329 3.2 6.4 0.00 3.86 0.00 91 1010.2
20260507001704 11 326 3.2 6.4 0.00 3.86 0.00 91 1010.2
20260507001504 11 324 3.2 6.4 0.00 3.86 0.00 91 1010.2
20260507001404 11 325 3.2 6.4 0.00 3.86 0.00 91 1010.2
20260507001204 11 327 3.2 6.4 0.00 3.86 0.00 91 1010.1
20260507001104 11 327 3.2 6.4 0.00 3.86 0.00 91 1010.1
20260507001004 11 327 3.2 6.4 0.00 3.86 0.00 91 1010.1
20260507000804 11 331 1.6 4.8 0.00 3.86 0.00 91 1010.1
20260507000303 11 337 1.6 3.2 0.00 3.86 0.00 91 1010.2
20260507000205 11 337 0.0 3.2 0.00 3.86 0.00 91 1010.1
20260507000104 11 337 0.0 3.2 0.00 3.86 0.00 91 1010.1
20260507000004 11 337 1.6 3.2 0.00 3.86 0.00 91 1010.1
20260506235904 11 337 1.6 3.2 0.00 3.86 0.00 91 1010.1
20260506235804 11 337 1.6 3.2 0.00 3.86 0.00 91 1010.1
20260506235704 11 338 1.6 3.2 0.00 3.86 0.00 91 1010.2
20260506235611 11 338 1.6 3.2 0.00 3.86 0.00 91 1010.1
20260506235404 11 338 1.6 3.2 0.00 3.86 0.00 91 1010.1
20260506235104 11 338 1.6 3.2 0.00 3.86 0.00 91 1010.2
20260506235005 11 338 0.0 3.2 0.00 3.86 0.00 91 1010.1
20260506234903 11 338 0.0 3.2 0.00 3.86 0.00 91 1010.0
20260506234704 11 338 0.0 3.2 0.00 3.86 0.00 91 1010.1
20260506234611 11 337 0.0 1.6 0.00 3.86 0.00 91 1010.1
20260506234505 11 338 0.0 3.2 0.00 3.86 0.00 91 1010.1
20260506234403 11 337 0.0 4.8 0.00 3.86 0.00 91 1010.2
20260506234304 11 338 1.6 4.8 0.00 3.86 0.00 91 1010.1
20260506234203 11 337 1.6 4.8 0.00 3.86 0.00 91 1010.2
20260506234103 11 337 1.6 6.4 0.00 3.86 0.00 91 1010.2
20260506234004 11 336 1.6 6.4 0.00 3.86 0.00 91 1010.1
20260506233804 11 337 3.2 6.4 0.00 3.86 0.00 91 1010.1
20260506233704 11 335 3.2 6.4 0.00 3.86 0.00 91 1010.0
20260506233611 11 335 3.2 6.4 0.00 3.86 0.00 91 1010.1
20260506233504 11 336 4.8 6.4 0.00 3.86 0.00 91 1010.1
20260506233403 11 338 4.8 6.4 0.00 3.86 0.00 91 1010.0
20260506233303 11 339 4.8 6.4 0.00 3.86 0.00 91 1010.1
20260506233203 11 340 3.2 6.4 0.00 3.86 0.00 91 1010.1
20260506233104 11 341 3.2 6.4 0.00 3.86 0.00 91 1010.0
20260506233004 11 342 3.2 6.4 0.00 3.86 0.00 91 1010.1
20260506232904 11 340 3.2 8.0 0.00 3.86 0.00 91 1010.0
20260506232803 11 341 4.8 9.7 0.00 3.86 0.00 91 1010.0
20260506232703 11 343 4.8 9.7 0.00 3.86 0.00 91 1010.1
20260506232613 11 341 4.8 9.7 0.00 3.86 0.00 91 1010.1
20260506232504 11 341 4.8 9.7 0.00 3.86 0.00 91 1010.0
20260506232403 11 339 4.8 9.7 0.00 3.86 0.00 91 1010.0
20260506232306 11 338 4.8 9.7 0.00 3.86 0.00 91 1010.1
20260506232004 11 336 4.8 9.7 0.00 3.86 0.00 90 1010.0
20260506231904 11 338 4.8 9.7 0.00 3.86 0.00 90 1010.0
20260506231803 11 337 3.2 9.7 0.00 3.86 0.00 90 1010.0
20260506231704 11 336 3.2 9.7 0.00 3.86 0.00 90 1010.1
20260506231612 11 338 3.2 8.0 0.00 3.86 0.00 91 1009.9
20260506231504 11 338 1.6 6.4 0.00 3.86 0.00 91 1010.0
20260506231404 11 339 1.6 4.8 0.00 3.86 0.00 91 1010.0
20260506231303 11 340 1.6 4.8 0.00 3.86 0.00 91 1010.0
20260506231204 11 343 1.6 4.8 0.00 3.86 0.00 91 1010.0
20260506231103 11 352 1.6 4.8 0.00 3.86 0.00 91 1010.0
20260506231004 11 4 1.6 3.2 0.00 3.86 0.00 91 1010.0
20260506230904 11 7 1.6 3.2 0.00 3.86 0.00 91 1010.0
20260506230803 11 8 1.6 4.8 0.00 3.86 0.00 91 1010.0
20260506230611 11 4 1.6 6.4 0.00 3.86 0.00 91 1009.9
20260506230404 11 5 3.2 6.4 0.00 3.86 0.00 91 1010.0
20260506230304 11 3 3.2 6.4 0.00 3.86 0.00 91 1010.0
20260506230203 11 2 3.2 6.4 0.00 3.86 0.00 91 1009.9
20260506230104 11 357 3.2 6.4 0.00 3.86 0.00 91 1009.9
20260506225903 11 347 4.8 8.0 0.00 3.86 0.00 91 1009.8
20260506225804 11 343 4.8 8.0 0.00 3.86 0.00 91 1009.8
20260506225704 11 342 4.8 8.0 0.00 3.86 0.00 91 1009.9
20260506225611 11 339 4.8 8.0 0.00 3.86 0.00 91 1009.9
20260506225503 11 336 4.8 8.0 0.00 3.86 0.00 91 1009.8
20260506225305 11 329 4.8 8.0 0.00 3.86 0.00 91 1010.0
20260506225204 11 326 4.8 8.0 0.00 3.86 0.00 91 1009.9
20260506225103 11 326 4.8 8.0 0.00 3.86 0.00 91 1009.9
20260506225004 11 326 3.2 8.0 0.00 3.86 0.00 91 1010.0
20260506224903 11 326 3.2 6.4 0.00 3.86 0.00 91 1010.0
20260506224804 11 325 1.6 6.4 0.00 3.86 0.00 91 1010.1
20260506224703 11 324 1.6 6.4 0.00 3.86 0.00 91 1010.1
20260506224611 11 319 1.6 6.4 0.00 3.86 0.00 91 1010.1
20260506224503 11 317 1.6 6.4 0.00 3.86 0.00 91 1010.1
20260506224404 11 324 1.6 6.4 0.00 3.86 0.00 91 1010.2
20260506224304 11 332 1.6 6.4 0.00 3.86 0.00 91 1010.1
20260506224203 11 337 1.6 6.4 0.00 3.86 0.00 91 1010.2
20260506224103 11 337 3.2 6.4 0.00 3.86 0.00 91 1010.1
20260506224004 11 340 3.2 8.0 0.00 3.86 0.00 91 1010.1
20260506223903 11 342 4.8 9.7 0.00 3.86 0.00 90 1010.1
20260506223804 11 343 4.8 9.7 0.00 3.86 0.00 91 1010.0
20260506223703 11 346 4.8 9.7 0.00 3.86 0.00 91 1010.0
20260506223403 11 351 6.4 9.7 0.00 3.86 0.00 91 1009.9
20260506223303 11 352 6.4 9.7 0.00 3.86 0.00 91 1009.9
20260506223203 11 352 6.4 9.7 0.00 3.86 0.00 91 1010.0
20260506223104 11 352 6.4 9.7 0.00 3.86 0.00 91 1010.0
20260506222903 11 350 4.8 9.7 0.00 3.86 0.00 91 1010.0
20260506222804 11 351 4.8 9.7 0.00 3.86 0.00 91 1010.0
20260506222703 11 349 4.8 8.0 0.00 3.86 0.00 91 1009.9
20260506222603 11 348 4.8 8.0 0.00 3.86 0.00 91 1009.9
20260506222404 11 346 4.8 8.0 0.00 3.86 0.00 91 1009.9
20260506222203 11 346 4.8 8.0 0.00 3.86 0.00 91 1009.9
20260506221904 11 340 4.8 8.0 0.00 3.86 0.00 91 1009.7
20260506221803 11 339 4.8 8.0 0.00 3.86 0.00 91 1009.7
20260506221703 11 338 4.8 8.0 0.00 3.86 0.00 91 1009.7
20260506221603 11 339 4.8 8.0 0.00 3.86 0.00 91 1009.7
20260506221504 11 338 4.8 8.0 0.00 3.86 0.00 91 1009.8
20260506221404 11 340 4.8 6.4 0.00 3.86 0.00 91 1009.7
20260506221303 11 339 4.8 6.4 0.00 3.86 0.00 91 1009.8
20260506221204 11 339 4.8 6.4 0.00 3.86 0.00 91 1009.8
20260506221104 11 340 4.8 6.4 0.00 3.86 0.00 91 1009.8
20260506221013 11 341 4.8 6.4 0.00 3.86 0.00 91 1009.8
20260506220904 11 342 4.8 6.4 0.00 3.86 0.00 91 1009.8
20260506220804 11 342 4.8 6.4 0.00 3.86 0.00 91 1009.8
20260506220704 11 339 3.2 6.4 0.00 3.86 0.00 91 1009.8
20260506220603 11 336 3.2 6.4 0.00 3.86 0.00 91 1009.7
20260506220504 11 334 3.2 6.4 0.00 3.86 0.00 90 1009.7
20260506220403 11 329 3.2 6.4 0.00 3.86 0.00 90 1009.7
20260506220303 11 324 3.2 6.4 0.00 3.86 0.00 90 1009.6
20260506220203 11 319 1.6 6.4 0.00 3.86 0.00 91 1009.7
20260506220103 11 308 1.6 4.8 0.00 3.86 0.00 91 1009.6
20260506220006 11 298 1.6 4.8 0.00 3.86 0.00 90 1009.6
20260506215804 11 276 1.6 4.8 0.00 3.86 3.86 90 1009.6
20260506215704 11 272 1.6 4.8 0.00 3.86 3.86 91 1009.5
20260506215604 11 276 1.6 4.8 0.00 3.86 3.86 91 1009.6
20260506215504 11 283 1.6 4.8 0.00 3.86 3.86 91 1009.6
20260506215413 11 289 1.6 4.8 0.00 3.86 3.86 91 1009.7
20260506215306 11 298 1.6 4.8 0.00 3.86 3.86 91 1009.7
20260506215203 11 301 1.6 4.8 0.00 3.86 3.86 91 1009.7
20260506215103 11 305 1.6 4.8 0.00 3.86 3.86 91 1009.7
20260506215004 11 311 3.2 4.8 0.00 3.86 3.86 91 1009.6
20260506214904 11 315 3.2 4.8 0.00 3.86 3.86 91 1009.7
20260506214803 11 321 3.2 4.8 0.00 3.86 3.86 91 1009.7
20260506214703 11 326 3.2 4.8 0.00 3.86 3.86 91 1009.7
20260506214604 11 326 3.2 4.8 0.00 3.86 3.86 91 1009.6
20260506214504 11 327 3.2 4.8 0.00 3.86 3.86 91 1009.6
20260506214412 11 327 3.2 4.8 0.00 3.86 3.86 91 1009.6
20260506214304 11 330 3.2 4.8 0.00 3.86 3.86 91 1009.6
20260506214204 11 335 3.2 4.8 0.00 3.86 3.86 91 1009.5
20260506214104 11 336 3.2 4.8 0.00 3.86 3.86 91 1009.6
20260506213903 11 338 1.6 4.8 0.00 3.86 3.86 91 1009.6
20260506213803 11 340 1.6 4.8 0.00 3.86 3.86 91 1009.5
20260506213703 11 345 1.6 4.8 0.00 3.86 3.86 91 1009.5
20260506213603 11 348 1.6 4.8 0.00 3.86 3.86 91 1009.5
20260506213504 11 351 1.6 4.8 0.00 3.86 3.86 91 1009.5
20260506213411 11 353 1.6 6.4 0.00 3.86 3.86 90 1009.5
20260506213203 11 346 3.2 8.0 0.00 3.86 3.86 91 1009.6
20260506213104 11 345 3.2 8.0 0.00 3.86 3.86 91 1009.6
20260506213004 11 345 3.2 8.0 0.00 3.86 3.86 91 1009.6
20260506212803 11 342 4.8 8.0 0.00 3.86 3.86 91 1009.5
20260506212703 11 339 4.8 8.0 0.00 3.86 3.86 91 1009.6
20260506212603 11 337 4.8 8.0 0.00 3.86 3.86 91 1009.6
20260506212505 11 336 4.8 8.0 0.00 3.86 3.86 90 1009.6
20260506212410 11 336 4.8 8.0 0.00 3.86 3.86 90 1009.5
20260506212306 11 337 4.8 8.0 0.00 3.86 3.86 90 1009.5
20260506212104 11 335 3.2 8.0 0.00 3.86 3.86 90 1009.6
20260506211903 11 333 3.2 8.0 0.00 3.86 3.86 90 1009.7
20260506211804 11 332 3.2 8.0 0.00 3.86 3.86 90 1009.5
20260506211703 11 332 3.2 6.4 0.00 3.86 3.86 90 1009.5
20260506211604 12 331 1.6 6.4 0.00 3.86 3.86 90 1009.5
20260506211504 12 327 3.2 6.4 0.00 3.86 3.86 90 1009.5
20260506211203 11 321 3.2 6.4 0.00 3.86 3.86 90 1009.6
20260506211103 11 320 3.2 6.4 0.00 3.86 3.86 90 1009.6
20260506211004 11 318 3.2 6.4 0.00 3.86 3.86 90 1009.5
20260506210904 11 320 3.2 6.4 0.00 3.86 3.86 90 1009.5
20260506210803 11 323 1.6 6.4 0.00 3.86 3.86 90 1009.5
20260506210603 12 339 1.6 8.0 0.00 3.86 3.86 90 1009.5
20260506210504 12 349 1.6 8.0 0.00 3.86 3.86 91 1009.5
20260506210303 12 356 3.2 9.7 0.00 3.86 3.86 91 1009.6
20260506210204 12 356 3.2 11.3 0.00 3.86 3.86 91 1009.6
20260506210104 12 355 4.8 11.3 0.00 3.86 3.86 90 1009.6
20260506205904 12 353 6.4 12.9 0.00 3.86 3.86 90 1009.6
20260506205604 12 352 8.0 12.9 0.00 3.86 3.86 90 1009.7
20260506205410 12 352 8.0 14.5 0.00 3.86 3.86 90 1009.7
20260506205306 12 354 9.7 14.5 0.00 3.86 3.86 90 1009.7
20260506205204 12 354 9.7 14.5 0.00 3.86 3.86 91 1009.7
20260506205003 12 356 9.7 14.5 0.00 3.86 3.86 91 1009.7
20260506204904 12 356 8.0 14.5 0.00 3.86 3.86 90 1009.7
20260506204605 12 356 8.0 14.5 0.00 3.86 3.86 90 1009.7
20260506204504 12 357 6.4 14.5 0.00 3.86 3.86 90 1009.6
20260506204413 12 357 6.4 12.9 0.00 3.86 3.86 90 1009.6
20260506204205 12 353 4.8 12.9 0.00 3.86 3.86 90 1009.6
20260506204104 12 350 4.8 9.7 0.00 3.86 3.86 90 1009.7
20260506204004 12 346 4.8 9.7 0.00 3.86 3.86 90 1009.7
20260506203903 12 342 3.2 9.7 0.00 3.86 3.86 90 1009.7
20260506203805 12 342 3.2 9.7 0.00 3.86 3.86 90 1009.7
20260506203503 12 321 1.6 4.8 0.00 3.86 3.86 90 1009.6
20260506203410 12 319 1.6 3.2 0.00 3.86 3.86 90 1009.6
20260506203304 12 322 1.6 3.2 0.00 3.86 3.86 90 1009.5
20260506203203 12 331 1.6 3.2 0.00 3.86 3.86 90 1009.4
20260506203103 12 15 0.0 3.2 0.00 3.86 3.86 90 1009.5
20260506203003 12 94 0.0 3.2 0.00 3.86 3.86 90 1009.4
20260506202904 12 118 0.0 3.2 0.03 3.86 3.86 90 1009.5
20260506202803 12 124 0.0 3.2 0.03 3.86 3.86 90 1009.4
20260506202703 12 130 0.0 3.2 0.03 3.86 3.86 90 1009.3
20260506202605 12 131 0.0 3.2 0.03 3.86 3.86 90 1009.4
20260506202504 12 132 0.0 3.2 0.03 3.86 3.86 90 1009.4
20260506202306 12 133 0.0 3.2 0.03 3.86 3.86 90 1009.3
20260506202203 12 136 0.0 4.8 0.03 3.86 3.86 90 1009.4
20260506202103 12 141 0.0 4.8 0.03 3.86 3.86 90 1009.3
20260506202004 12 144 0.0 4.8 0.03 3.86 3.86 89 1009.3
20260506201804 12 152 0.0 4.8 0.03 3.86 3.86 90 1009.3
20260506201703 12 159 0.0 4.8 0.03 3.86 3.86 89 1009.2
20260506201603 12 162 0.0 4.8 0.03 3.86 3.86 90 1009.2
20260506201504 12 168 0.0 4.8 0.03 3.86 3.86 90 1009.2
20260506201412 12 170 0.0 4.8 0.03 3.86 3.86 90 1009.1
20260506201204 12 209 0.0 3.2 0.05 3.86 3.86 90 1009.2
20260506201104 12 227 0.0 3.2 0.05 3.86 3.86 90 1009.2
20260506201003 12 227 0.0 3.2 0.05 3.86 3.86 89 1009.1
20260506200905 12 273 0.0 1.6 0.05 3.96 3.86 90 1009.1
20260506200804 12 276 0.0 1.6 0.05 3.96 3.86 90 1009.1
20260506200704 12 276 0.0 1.6 0.05 3.96 3.86 90 1009.1
20260506200604 12 276 0.0 1.6 0.05 3.96 3.86 90 1009.1
20260506200503 12 276 0.0 3.2 0.05 3.96 3.86 90 1009.1
20260506200410 12 276 0.0 3.2 0.05 3.96 3.86 90 1009.1
20260506200304 12 279 0.0 3.2 0.05 3.96 3.86 89 1009.2
20260506200205 12 280 0.0 3.2 0.05 3.96 3.86 89 1009.0
20260506200103 12 285 1.6 4.8 0.05 3.96 3.86 89 1009.1
20260506200004 12 286 1.6 4.8 0.05 3.96 3.86 89 1009.0
20260506195903 12 289 1.6 4.8 0.05 3.96 3.86 89 1009.0
20260506195804 12 296 1.6 6.4 0.08 3.96 3.86 90 1009.0
20260506195704 12 300 1.6 6.4 0.08 3.96 3.86 89 1009.0
20260506195605 12 304 1.6 6.4 0.08 3.96 3.86 89 1009.0
20260506195503 12 310 1.6 6.4 0.10 3.96 3.86 89 1008.9
20260506195410 12 313 3.2 6.4 0.10 3.96 3.86 89 1008.9
20260506195306 12 316 3.2 6.4 0.10 3.96 3.86 89 1009.0
20260506195203 12 318 3.2 6.4 0.10 3.96 3.86 89 1008.9
20260506195103 12 321 3.2 6.4 0.10 3.96 3.86 89 1009.0
20260506195004 12 324 3.2 6.4 0.13 3.96 3.86 89 1008.9
20260506194905 12 326 3.2 6.4 0.13 3.96 3.86 90 1008.9
20260506194705 12 329 1.6 4.8 0.13 3.96 3.86 90 1008.9
20260506194603 12 331 1.6 4.8 0.15 3.96 3.86 90 1008.7
20260506194503 12 335 1.6 4.8 0.15 3.96 3.86 90 1008.8
20260506194204 12 339 1.6 4.8 0.15 3.96 3.86 89 1008.8
20260506194004 12 344 1.6 4.8 0.15 3.96 3.86 89 1008.8
20260506193710 12 349 1.6 4.8 0.15 3.96 3.86 89 1008.8
20260506193504 12 349 1.6 4.8 0.18 3.96 3.86 89 1008.7
20260506193404 12 351 1.6 4.8 0.20 3.96 3.86 89 1008.8
20260506193303 12 354 1.6 4.8 0.20 3.96 3.86 89 1008.7
20260506193204 12 358 1.6 4.8 0.23 3.96 3.86 89 1008.7
20260506193103 12 1 0.0 4.8 0.23 3.96 3.86 89 1008.6
20260506193004 12 350 0.0 3.2 0.25 3.96 3.86 89 1008.7
20260506192504 12 338 1.6 4.8 0.28 3.94 3.84 89 1008.7
20260506192403 12 337 1.6 4.8 0.28 3.94 3.84 88 1008.5
20260506192305 12 336 1.6 4.8 0.30 3.94 3.84 88 1008.6
20260506192104 12 334 1.6 4.8 0.30 3.94 3.84 88 1008.5
20260506192003 12 335 1.6 4.8 0.30 3.94 3.84 88 1008.5
20260506191904 12 335 1.6 4.8 0.30 3.94 3.84 88 1008.4
20260506191804 12 333 1.6 4.8 0.30 3.94 3.84 88 1008.3
20260506191710 12 330 1.6 4.8 0.30 3.94 3.84 88 1008.4
20260506191603 12 327 1.6 4.8 0.30 3.94 3.84 87 1008.3
20260506191504 12 323 1.6 4.8 0.30 3.94 3.84 87 1008.4
20260506191404 12 319 1.6 4.8 0.30 3.94 3.84 87 1008.4
20260506191304 12 309 1.6 4.8 0.30 3.94 3.84 87 1008.4
20260506191204 12 288 1.6 6.4 0.28 3.91 3.81 87 1008.3
20260506191004 12 256 3.2 6.4 0.28 3.91 3.81 86 1008.4
20260506190904 12 240 3.2 9.7 0.28 3.91 3.81 86 1008.4
20260506190803 12 227 3.2 9.7 0.28 3.91 3.81 86 1008.3
20260506190711 12 218 4.8 9.7 0.28 3.91 3.81 86 1008.3
20260506190603 12 211 4.8 9.7 0.28 3.91 3.81 85 1008.2
20260506190503 12 208 4.8 9.7 0.28 3.91 3.81 85 1008.4
20260506190403 12 206 6.4 9.7 0.25 3.91 3.81 85 1008.3
20260506190304 12 204 6.4 9.7 0.25 3.91 3.81 85 1008.2
20260506190204 12 203 6.4 11.3 0.25 3.91 3.81 84 1008.2
20260506190007 12 202 8.0 11.3 0.25 3.91 3.81 84 1008.2
20260506185903 12 200 8.0 11.3 0.23 3.89 3.78 84 1008.2
20260506185804 12 200 6.4 11.3 0.23 3.89 3.78 84 1008.2
20260506185714 12 199 6.4 11.3 0.23 3.89 3.78 84 1008.1
20260506185603 12 198 6.4 11.3 0.23 3.86 3.76 84 1008.1
20260506185505 12 198 6.4 11.3 0.23 3.86 3.76 83 1008.2
20260506185403 12 198 6.4 11.3 0.23 3.86 3.76 83 1008.2
20260506185306 12 199 4.8 11.3 0.23 3.86 3.76 83 1008.1
20260506185203 13 197 4.8 9.7 0.23 3.86 3.76 82 1008.0
20260506185104 13 197 4.8 9.7 0.23 3.86 3.76 82 1008.0
20260506185009 13 196 3.2 9.7 0.20 3.84 3.73 82 1008.1
20260506184903 13 197 3.2 8.0 0.20 3.84 3.73 82 1008.0
20260506184803 13 197 1.6 6.4 0.20 3.84 3.73 82 1008.0
20260506184703 13 199 1.6 6.4 0.20 3.84 3.73 82 1008.0
20260506184603 13 203 1.6 6.4 0.18 3.81 3.71 81 1008.0
20260506184504 13 213 1.6 6.4 0.18 3.81 3.71 81 1007.8
20260506184203 13 229 1.6 6.4 0.18 3.81 3.71 81 1007.7
20260506184105 13 234 1.6 6.4 0.15 3.81 3.71 80 1007.7
20260506184010 13 239 1.6 6.4 0.15 3.81 3.71 79 1007.8
20260506183903 13 235 1.6 6.4 0.15 3.81 3.71 79 1007.7
20260506183803 13 228 1.6 6.4 0.15 3.81 3.71 79 1007.6
20260506183704 13 215 1.6 6.4 0.15 3.78 3.68 78 1007.7
20260506183603 13 209 1.6 6.4 0.15 3.78 3.68 78 1007.7
20260506183503 13 206 1.6 4.8 0.13 3.76 3.66 77 1007.6
20260506183405 14 209 1.6 4.8 0.13 3.76 3.66 77 1007.4
20260506183303 14 211 1.6 4.8 0.10 3.73 3.63 77 1007.5
20260506183203 14 214 1.6 4.8 0.10 3.73 3.63 76 1007.5
20260506183012 14 222 1.6 4.8 0.05 3.71 3.61 76 1007.3
20260506182903 14 236 3.2 6.4 0.05 3.71 3.61 75 1007.4
20260506182703 14 266 3.2 6.4 0.03 3.66 3.56 75 1007.2
20260506182604 14 281 1.6 6.4 0.03 3.66 3.56 74 1007.3
20260506182503 14 286 1.6 6.4 0.03 3.66 3.56 74 1007.3
20260506182403 14 287 1.6 6.4 0.03 3.66 3.56 74 1007.2
20260506182203 14 284 1.6 6.4 0.00 3.63 3.53 75 1007.2
20260506182104 14 300 1.6 6.4 0.00 3.63 3.53 75 1007.1
20260506181806 14 326 3.2 8.0 0.00 3.63 3.53 75 1007.2
20260506181707 14 323 3.2 8.0 0.00 3.63 3.53 74 1007.1
20260506181607 14 324 3.2 11.3 0.00 3.63 3.53 74 1007.1
20260506181406 14 324 3.2 11.3 0.00 3.63 3.53 74 1007.1
20260506181314 14 329 3.2 11.3 0.00 3.63 3.53 74 1007.2
20260506181207 14 331 4.8 11.3 0.00 3.63 3.53 74 1007.1
20260506181107 14 328 4.8 11.3 0.00 3.63 3.53 73 1007.1
20260506180907 14 325 4.8 11.3 0.00 3.63 3.53 73 1007.1
20260506180807 14 326 4.8 11.3 0.00 3.63 3.53 73 1007.1
20260506180707 14 327 4.8 11.3 0.00 3.63 3.53 73 1007.1
20260506180610 14 333 4.8 9.7 0.00 3.63 3.53 73 1007.1
20260506180408 14 340 4.8 11.3 0.00 3.63 3.53 73 1007.1
20260506180320 14 350 4.8 11.3 0.00 3.63 3.53 73 1007.0
20260506180207 14 13 4.8 11.3 0.00 3.63 3.53 72 1007.1
20260506180107 14 42 4.8 11.3 0.00 3.63 3.53 72 1007.1
20260506180007 14 61 4.8 11.3 0.00 3.63 3.53 72 1007.1
20260506175908 14 73 3.2 11.3 0.00 3.63 3.53 72 1007.0
20260506175808 14 77 3.2 11.3 0.00 3.63 3.53 72 1007.0
20260506175708 14 87 3.2 11.3 0.00 3.63 3.53 72 1006.9
20260506175608 14 92 3.2 11.3 0.00 3.63 3.53 72 1006.9
20260506175508 14 95 4.8 11.3 0.00 3.63 3.53 72 1006.9
20260506175407 14 89 4.8 12.9 0.00 3.63 3.53 72 1006.8
20260506175316 14 85 4.8 12.9 0.00 3.63 3.53 72 1006.8
20260506175007 14 63 4.8 12.9 0.00 3.63 3.53 72 1006.7
20260506174907 14 63 6.4 12.9 0.00 3.73 3.53 72 1006.7
20260506174607 14 50 6.4 12.9 0.00 3.73 3.53 72 1006.7
20260506174408 14 37 4.8 12.9 0.00 3.73 3.53 71 1006.6
20260506174316 14 29 4.8 9.7 0.00 3.73 3.53 71 1006.6
20260506174207 14 22 4.8 9.7 0.00 3.73 3.53 72 1006.5
20260506174107 14 17 4.8 9.7 0.00 3.73 3.53 72 1006.4
20260506174007 14 15 4.8 9.7 0.00 3.73 3.53 73 1006.4
20260506173907 14 8 4.8 9.7 0.00 3.73 3.53 73 1006.4
20260506173807 14 357 4.8 9.7 0.00 3.73 3.53 73 1006.3
20260506173707 14 351 6.4 9.7 0.00 3.73 3.53 73 1006.3
20260506173608 14 344 6.4 11.3 0.00 3.73 3.53 73 1006.2
20260506173316 14 334 8.0 11.3 0.00 3.73 3.53 73 1006.3
20260506173107 14 330 8.0 11.3 0.00 3.73 3.53 73 1006.2
20260506173007 14 328 8.0 11.3 0.00 3.73 3.53 73 1006.3
20260506172907 14 328 8.0 14.5 0.00 3.73 3.53 73 1006.4
20260506172707 14 328 9.7 14.5 0.00 3.73 3.53 73 1006.3
20260506172607 14 328 9.7 14.5 0.00 3.73 3.53 73 1006.3
20260506172508 14 329 9.7 14.5 0.00 3.73 3.53 73 1006.2
20260506172407 14 331 8.0 14.5 0.00 3.73 3.53 74 1006.3
20260506172313 14 330 9.7 14.5 0.00 3.73 3.53 73 1006.3
20260506172207 14 329 9.7 14.5 0.00 3.73 3.53 74 1006.3
20260506172107 14 329 9.7 14.5 0.00 3.73 3.53 73 1006.2
20260506172007 14 328 9.7 14.5 0.00 3.73 3.53 73 1006.3
20260506171807 14 328 8.0 12.9 0.00 3.73 3.53 73 1006.4
20260506171707 14 329 8.0 12.9 0.00 3.73 3.53 74 1006.4
20260506171507 14 329 8.0 12.9 0.00 3.73 3.53 74 1006.5
20260506171407 14 328 8.0 12.9 0.00 3.73 3.53 73 1006.4
20260506171107 14 329 4.8 12.9 0.00 3.73 3.53 73 1006.5
20260506171007 14 332 4.8 12.9 0.00 3.73 3.53 73 1006.6
20260506170907 14 334 3.2 9.7 0.00 3.73 3.53 72 1006.5
20260506170807 14 335 3.2 9.7 0.00 3.73 3.53 72 1006.5
20260506170707 14 337 3.2 8.0 0.00 3.73 3.53 72 1006.5
20260506170614 14 340 1.6 8.0 0.00 3.73 3.53 72 1006.4
20260506170507 14 343 1.6 8.0 0.00 3.73 3.53 72 1006.5
20260506170407 14 352 1.6 6.4 0.00 3.73 3.53 72 1006.4
20260506170307 14 10 1.6 6.4 0.00 3.73 3.53 71 1006.4
20260506170207 14 111 1.6 4.8 0.00 3.73 3.53 72 1006.4
20260506170107 14 119 0.0 3.2 0.00 3.73 3.53 71 1006.4
20260506170008 14 125 0.0 3.2 0.00 3.73 3.53 71 1006.4
20260506165907 14 134 0.0 3.2 0.00 3.73 3.53 71 1006.4
20260506165807 14 142 0.0 3.2 0.00 3.73 3.53 71 1006.3
20260506165613 14 143 0.0 3.2 0.00 3.73 3.53 72 1006.3
20260506165508 14 139 1.6 3.2 0.00 3.73 3.53 73 1006.4
20260506165406 14 146 0.0 3.2 0.00 3.73 3.53 73 1006.2
20260506165307 14 162 1.6 3.2 0.00 3.73 3.53 73 1006.3
20260506165207 14 277 0.0 3.2 0.00 3.73 3.53 74 1006.2
20260506165107 14 301 1.6 3.2 0.00 3.73 3.53 74 1006.2
20260506164807 14 332 1.6 4.8 0.00 3.73 3.53 72 1006.1
20260506164612 14 333 1.6 8.0 0.00 3.73 3.53 71 1006.0
20260506164407 14 335 3.2 9.7 0.00 3.73 3.53 70 1006.0
20260506164207 14 336 4.8 11.3 0.00 3.73 3.53 70 1006.0
20260506164107 14 338 6.4 11.3 0.00 3.73 3.53 70 1006.0
20260506164007 14 338 6.4 11.3 0.00 3.73 3.53 70 1006.0
20260506163907 14 339 6.4 14.5 0.00 3.73 3.53 70 1006.1
20260506163807 14 344 6.4 14.5 0.00 3.73 3.53 70 1006.2
20260506163614 14 3 8.0 14.5 0.00 3.73 3.53 70 1006.2
20260506163507 14 19 8.0 17.7 0.00 3.73 3.53 70 1006.2
20260506163407 14 37 8.0 17.7 0.00 3.73 3.53 70 1006.1
20260506163307 15 51 9.7 19.3 0.00 3.73 3.53 69 1006.1
20260506163207 15 56 9.7 22.5 0.00 3.73 3.53 68 1006.2
20260506163007 15 64 11.3 22.5 0.00 3.73 3.53 67 1006.1
20260506162907 15 67 9.7 22.5 0.00 3.73 3.53 67 1006.2
20260506162807 15 67 11.3 22.5 0.00 3.73 3.53 66 1006.2
20260506162707 15 65 11.3 22.5 0.00 3.73 3.53 65 1006.2
20260506162613 15 62 11.3 22.5 0.00 3.73 3.53 65 1006.2
20260506162508 15 61 11.3 22.5 0.00 3.73 3.53 65 1006.0
20260506162407 15 57 9.7 22.5 0.00 3.73 3.53 65 1006.0
20260506162307 15 56 9.7 22.5 0.00 3.73 3.53 66 1006.0
20260506161907 15 65 9.7 19.3 0.00 3.73 3.53 66 1005.8
20260506161807 15 68 9.7 19.3 0.00 3.73 3.53 66 1005.8
20260506161707 15 71 9.7 19.3 0.00 3.73 3.53 67 1005.7
20260506161613 15 73 9.7 20.9 0.00 3.73 3.53 67 1005.7
20260506161507 15 74 9.7 20.9 0.00 3.73 3.53 68 1005.6
20260506161407 14 75 11.3 20.9 0.00 3.73 3.53 68 1005.7
20260506161307 14 73 11.3 20.9 0.00 3.73 3.53 68 1005.7
20260506161207 14 71 11.3 20.9 0.00 3.73 3.53 67 1005.6
20260506161107 14 72 12.9 20.9 0.00 3.73 3.53 67 1005.6
20260506160907 14 76 12.9 20.9 0.00 3.73 3.53 67 1005.6
20260506160807 14 75 12.9 20.9 0.00 3.73 3.53 67 1005.6
20260506160607 14 65 8.0 9.7 0.00 3.73 3.53 69 1005.6
20260506160507 14 76 8.0 9.7 0.00 3.73 3.53 69 1005.7
20260506160307 14 97 9.7 9.7 0.00 3.73 3.53 69 1005.6
20260506073207 11 311 3.2 6.4 0.25 0.66 0.25 93 1006.4
20260506073107 11 306 3.2 6.4 0.23 0.64 0.23 93 1006.3
20260506073008 11 301 3.2 6.4 0.23 0.61 0.23 93 1006.4
20260506072907 11 299 3.2 6.4 0.00 0.61 0.20 93 1006.3
20260506072809 11 300 3.2 6.4 0.00 0.58 0.18 93 1006.4
20260506072707 11 300 3.2 6.4 0.00 0.58 0.18 93 1006.5
20260506072607 11 301 4.8 6.4 0.00 0.56 0.15 93 1006.4
20260506072519 11 307 3.2 6.4 0.00 0.51 0.13 93 1006.5
20260506072406 11 316 3.2 6.4 0.00 0.61 0.10 93 1006.5
20260506072308 11 318 3.2 6.4 0.00 0.61 0.10 93 1006.6
20260506071907 11 327 4.8 8.0 0.00 0.61 0.10 93 1006.7
20260506071809 11 331 4.8 8.0 0.00 0.58 0.08 93 1006.7
20260506071707 11 334 4.8 9.7 0.00 0.58 0.08 93 1006.7
20260506071606 11 335 4.8 9.7 0.00 0.58 0.08 93 1006.7
20260506071518 11 336 4.8 9.7 0.00 0.58 0.08 93 1006.7
20260506071407 11 337 4.8 9.7 0.00 0.69 0.08 93 1006.8
20260506071307 11 338 4.8 9.7 0.00 0.66 0.05 93 1006.7
20260506071207 11 340 4.8 9.7 0.00 0.66 0.05 93 1006.7
20260506071107 11 342 4.8 9.7 0.00 0.66 0.05 93 1006.7
20260506070906 11 340 3.2 9.7 0.00 0.66 0.05 93 1006.7
20260506070808 11 338 3.2 9.7 0.00 0.66 0.05 93 1006.7
20260506070607 11 332 1.6 8.0 0.00 0.64 0.05 93 1006.8
20260506070517 11 320 1.6 6.4 0.00 0.64 0.05 93 1006.8
20260506070406 11 240 1.6 6.4 0.00 0.64 0.05 93 1006.8
20260506070306 11 234 1.6 6.4 0.00 0.61 0.03 93 1006.8
20260506070207 11 229 1.6 6.4 0.00 0.61 0.03 93 1006.7
20260506070107 11 236 1.6 6.4 0.00 0.61 0.03 93 1006.8